Location: Newark
(42.8481°N, 0.4872°E)
Time: 17:31:01
(UTC+00:00)

Vanguard 1 - Pass Details

Date: 28 October 2020
Orbit: 650 x 3833 km, 34.2° (Epoch: 23 November)

Event Time Altitude Azimuth Distance (km) Brightness Sun altitude
Rises 11:34:02 0° 221° (SW) 7,080 15.0 33.8°
Reaches altitude 10° 11:38:38 10° 216° (SW) 6,364 15.1 33.8°
Maximum altitude 11:59:05 48° 150° (SSE) 4,545 14.7 33.6°
Drops below altitude 10° 12:18:50 10° 85° (E) 6,210 14.1 33.1°
Sets 12:23:12 0° 80° (E) 6,910 14.2 33.0°
